THOR ABLESTAR DEB, 130

Orbit data source: Space-Track

THOR ABLESTAR DEB, 130 is space debris in LEO originally from a launch on Thu, 29 Jun 1961 UTC launched from the Air Force Eastern Test Range (AFETR). Debris objects in space refer to the collection of defunct objects orbiting the Earth. Examples of debris include non-operational satellites, rocket bodies, and fragments generated from explosions, collisions, or faulty payload assembly.

Loading next visibility...
Identifier
130, 1961-015Q
Orbit
LEO
Country
Flag of USUS
Related business
Manufacturer
Unknown
Mission
Spacecraft
Bus & Motor
Unknown
Mass
Unknown
Launch date (UTC)
1961-06-29 (65 years ago)
Launch vehicle
Unknown
Launch site
Air Force Eastern Test Range (AFETR)
Object type
Payload
Rocket body
Debris
Shape & HBR
Unknown shape, 0.5 m
Radar Cross Section
Medium (>0.1 m² and <1 m²)

Expand to show TLE details & history
Last TLE update: 10 hours ago

TLE from 10 hours ago
0 THOR ABLESTAR DEB
1 00130U 61015Q   26266.58508668  .00000006  00000-0  56445-4 0  9999
2 00130  66.7733   7.6973 0090363 223.9532 135.4341 13.99445865325226
Epoch: 2026-09-23T14:02Z
TLE epoch observation values (Epoch: 2026-09-23T14:02:31.489Z)
Latitude
0.00004°
Longitude
154.63201°
Altitude
944.92 km
Speed
7.356 km/s
True Right ascension
00h 30m 47s
True Declination
0° 00' 00"
Sunlit
Object was in full shadow at epoch
Visualization orbit readout
Latitude
Unknown
Longitude
Unknown
Altitude
Unknown
Speed
Unknown
Apparent Right ascension
Unknown
Apparent Declination
Unknown
Sunlit
N/A
Visualization observer readout
Local Sidereal Time
17:27:38
Azimuth
Unknown
Elevation
Unknown
Doppler factor
Unknown
Orbital elements
Apogee altitude
959.818 km
Perigee altitude
828.39 km
Semi-major axis
7,272.241 km
Eccentricity
0.00904
Inclination
66.7733°
RAAN
7.6973°
Arg. of periapsis
223.9532°
True anomaly
136.15491°
Mean anomaly
135.4341°
Eccentric anomaly
135.79508°
Mean motion
3.49978 °/min
Orbital period
102.86 mins
BSTAR
0.000056445
Loading maneuver chart data...
Computing Atmospheric mass density...

Documentation

Showing up to 5 results
|